TimeEDT,TemperatureF,Dew PointF,Humidity,Sea Level PressureIn,VisibilityMPH,Wind Direction,Wind SpeedMPH,Gust SpeedMPH,PrecipitationIn,Events,Conditions,WindDirDegrees,DateUTC
12:53 AM,66.9,62.1,84,29.94,10.0,WSW,5.8,-,N/A,,Overcast,240,2013-03-19 04:53:00
1:53 AM,68.0,63.0,84,29.96,10.0,Calm,Calm,-,N/A,,Overcast,0,2013-03-19 05:53:00
2:53 AM,64.9,62.1,90,29.96,10.0,Calm,Calm,-,N/A,,Overcast,0,2013-03-19 06:53:00
3:53 AM,66.9,63.0,87,29.97,10.0,North,9.2,-,N/A,,Overcast,350,2013-03-19 07:53:00
4:53 AM,64.0,59.0,84,29.96,10.0,NNE,11.5,-,N/A,,Overcast,30,2013-03-19 08:53:00
5:14 AM,64.4,60.8,88,29.95,10.0,NNE,12.7,-,N/A,,Overcast,30,2013-03-19 09:14:00
5:53 AM,64.9,57.9,78,29.95,10.0,NE,10.4,-,N/A,,Overcast,40,2013-03-19 09:53:00
6:01 AM,64.4,57.2,77,29.95,10.0,NNE,8.1,-,N/A,,Overcast,30,2013-03-19 10:01:00
6:53 AM,64.0,57.9,80,29.96,10.0,Calm,Calm,-,N/A,,Overcast,0,2013-03-19 10:53:00
7:53 AM,61.0,57.0,87,29.97,10.0,Calm,Calm,-,N/A,,Mostly Cloudy,0,2013-03-19 11:53:00
8:53 AM,63.0,57.9,84,30.05,10.0,NW,9.2,-,N/A,,Mostly Cloudy,310,2013-03-19 12:53:00
9:18 AM,64.4,57.2,77,30.05,10.0,West,4.6,-,N/A,,Mostly Cloudy,270,2013-03-19 13:18:00
9:53 AM,66.9,57.9,73,30.01,6.0,SE,3.5,-,N/A,,Haze,140,2013-03-19 13:53:00
10:53 AM,72.0,57.9,61,29.98,10.0,SSE,6.9,-,N/A,,Scattered Clouds,160,2013-03-19 14:53:00
11:53 AM,78.1,57.9,50,29.98,10.0,SSW,8.1,-,N/A,,Scattered Clouds,210,2013-03-19 15:53:00
12:53 PM,82.0,55.0,39,29.97,10.0,WSW,9.2,-,N/A,,Mostly Cloudy,240,2013-03-19 16:53:00
1:53 PM,84.0,53.1,34,29.95,10.0,West,11.5,-,N/A,,Scattered Clouds,280,2013-03-19 17:53:00
2:53 PM,82.9,52.0,34,29.94,10.0,WNW,11.5,19.6,N/A,,Mostly Cloudy,290,2013-03-19 18:53:00
3:53 PM,82.0,57.0,42,29.93,10.0,NNE,12.7,-,N/A,,Scattered Clouds,30,2013-03-19 19:53:00
3:57 PM,80.6,57.2,45,29.93,10.0,NE,12.7,-,N/A,,Scattered Clouds,40,2013-03-19 19:57:00
4:53 PM,79.0,57.0,47,29.92,10.0,NE,10.4,-,N/A,,Scattered Clouds,50,2013-03-19 20:53:00
5:53 PM,75.0,59.0,57,29.93,10.0,ENE,11.5,-,N/A,,Scattered Clouds,70,2013-03-19 21:53:00
6:53 PM,71.1,60.1,68,29.95,10.0,ENE,9.2,-,N/A,,Mostly Cloudy,70,2013-03-19 22:53:00
7:53 PM,69.1,62.1,78,29.96,10.0,ENE,5.8,-,N/A,,Mostly Cloudy,70,2013-03-19 23:53:00
8:53 PM,68.0,62.1,81,29.98,10.0,NE,9.2,-,N/A,,Scattered Clouds,50,2013-03-20 00:53:00
9:53 PM,66.9,63.0,87,29.99,10.0,ENE,10.4,-,N/A,,Scattered Clouds,60,2013-03-20 01:53:00
10:53 PM,66.0,63.0,90,30.00,10.0,East,4.6,-,N/A,,Mostly Cloudy,80,2013-03-20 02:53:00
11:53 PM,66.9,63.0,87,30.00,10.0,ENE,5.8,-,N/A,,Mostly Cloudy,70,2013-03-20 03:53:00